Vorticity
3 2 3 2 2 5 10 3 8 7 8 7 7 7 7 7 6 6 8 7 7 5 5 5 6 6 6 5 6 6 8 7 8 8 8 6 7 7
3 2 2 4 1 3 8 6 5 6 4 6 7 6 6 8 9 8 8 7 7 5 5 6 6 6 5 6 7 7 7 8 9 9 7 7 8 6
4 2 5 -1 2 8 6 4 6 6 5 5 6 6 6 7 9 7 7 8 7 5 5 6 6 5 5 7 7 7 8 8 9 7 7 7 7 7
0 8 -2 7 3 6 6 7 5 3 2 4 2 6 7 7 5 6 8 8 5 5 6 5 6 6 6 7 7 7 8 10 8 7 7 8 8 7
8 14 -2 11 1 6 13 9 1 12 -2 4 1 -3 6 7 10 6 3 0 6 6 4 7 6 7 7 8 7 7 9 9 8 6 7 8 7 7
18 -21 42 -8 22 -4 2 -6 6 5 9 2 15 10 6 1 10 3 -3 5 11 9 9 7 9 8 8 7 7 10 10 8 7 8 9 8 7 8
-11 -36 35 33 -8 36 12 41 14 8 20 16 10 15 10 -7 11 9 -2 6 6 10 6 7 6 7 8 8 8 9 10 8 8 9 9 8 8 10
16 2 -9 17 20 32 2 25 -10 16 3 8 -2 24 14 7 9 22 20 13 6 16 9 6 9 8 8 10 13 11 9 9 10 8 8 9 10 10
8 5 11 13 9 4 4 3 13 7 -10 12 12 21 9 15 7 7 9 20 14 7 8 6 9 6 7 13 12 10 9 8 7 9 9 9 10 10
13 11 3 16 0 -4 22 8 7 8 8 25 -1 11 26 6 9 4 6 8 6 10 10 13 18 15 12 11 11 10 10 2 7 7 8 9 10 10
-12 21 -1 -5 4 32 -0 7 11 14 11 12 5 20 2 -0 4 5 10 3 13 16 19 18 14 10 7 3 2 -13 14 10 8 9 9 10 11 11
10 -6 -8 13 19 13 7 3 3 7 5 9 6 9 2 7 8 11 10 8 12 13 15 15 15 9 7 9 18 10 5 9 6 6 11 11 11 8
24 8 22 -3 3 11 15 -13 13 12 14 -1 6 9 14 12 12 12 10 13 17 16 16 16 16 15 12 19 6 7 3 3 10 10 11 11 7 8
4 17 3 2 4 10 11 14 7 5 7 14 10 10 12 17 15 12 16 17 15 16 14 14 14 12 10 5 5 3 7 8 9 12 13 8 9 9
-14 32 19 6 1 11 16 -2 8 14 5 12 14 16 15 12 12 15 15 14 14 12 11 14 13 13 4 5 1 6 8 9 13 12 8 9 9 8
11 13 -12 13 -2 2 1 1 14 4 14 13 14 14 12 15 16 14 13 12 12 13 11 10 8 8 3 2 5 8 10 15 14 8 8 9 9 7
18 -12 15 -10 3 10 16 13 9 15 14 18 18 17 17 15 15 13 10 9 11 10 9 9 4 2 2 5 8 11 13 15 8 8 9 8 8 8
19 22 31 27 27 17 -1 17 16 14 14 15 16 17 14 12 10 10 10 11 10 11 6 3 3 4 6 8 10 13 14 10 8 8 8 7 7 6
14 16 24 17 20 25 20 16 15 16 16 15 15 13 10 8 9 10 8 11 7 4 4 4 6 6 7 9 13 12 11 9 8 8 7 7 7 6
20 19 18 15 14 14 15 16 15 12 12 13 12 9 7 8 10 10 9 5 4 4 5 7 8 9 9 11 14 15 11 6 7 8 8 6 7 7
16 12 11 13 15 14 14 13 13 15 13 10 7 7 8 10 9 6 4 4 5 7 8 9 10 11 12 10 11 9 6 10 10 9 8 9 9 8
20 19 18 16 14 13 15 13 11 9 7 7 8 10 8 5 5 5 6 7 7 8 9 10 13 13 12 11 10 8 7 7 7 9 11 12 11 11
15 16 16 17 15 14 10 9 6 4 6 8 6 5 6 6 6 7 8 8 9 9 10 12 12 14 13 10 9 8 8 7 8 8 8 8 9 10
Height
3167 3169 3172 3174 3176 3178 3179 3180 3181 3182 3184 3185 3186 3187 3187 3188 3188 3189 3189 3188 3188 3187 3186 3186 3184 3182 3181 3180 3178 3176 3174 3171 3169 3167 3165 3163 3160 3157
3159 3162 3165 3167 3170 3171 3173 3173 3175 3177 3178 3180 3180 3180 3181 3182 3182 3182 3182 3182 3182 3182 3181 3179 3178 3177 3175 3174 3171 3169 3167 3165 3163 3160 3158 3156 3154 3151
3151 3155 3157 3159 3161 3163 3166 3166 3168 3170 3171 3172 3173 3173 3174 3175 3175 3175 3175 3174 3175 3174 3174 3172 3171 3169 3168 3167 3164 3162 3160 3158 3156 3154 3152 3150 3147 3145
3143 3146 3147 3149 3152 3154 3157 3158 3160 3162 3164 3165 3165 3166 3167 3168 3168 3167 3168 3167 3167 3166 3165 3164 3163 3161 3160 3159 3157 3155 3153 3151 3149 3146 3144 3143 3140 3138
3132 3133 3137 3139 3141 3145 3148 3150 3152 3153 3155 3156 3157 3158 3158 3159 3160 3160 3160 3159 3159 3158 3156 3156 3155 3154 3153 3151 3149 3147 3146 3144 3142 3140 3138 3136 3133 3130
3123 3123 3125 3122 3130 3133 3137 3139 3141 3144 3145 3146 3146 3148 3148 3149 3150 3151 3151 3151 3150 3149 3148 3147 3147 3146 3145 3143 3141 3140 3138 3136 3134 3132 3131 3129 3126 3124
3107 3108 3114 3117 3118 3122 3125 3128 3130 3132 3134 3136 3137 3137 3137 3138 3140 3140 3141 3141 3140 3140 3139 3138 3138 3137 3136 3134 3132 3132 3130 3128 3126 3125 3123 3121 3119 3116
3095 3100 3106 3107 3108 3111 3116 3117 3120 3121 3124 3125 3126 3126 3127 3129 3130 3130 3130 3130 3131 3131 3128 3129 3128 3127 3126 3125 3124 3123 3122 3120 3118 3117 3115 3113 3112 3109
3086 3089 3092 3094 3095 3100 3104 3106 3109 3111 3113 3114 3116 3116 3117 3118 3120 3120 3120 3120 3120 3120 3119 3118 3117 3116 3115 3115 3115 3115 3114 3113 3111 3110 3107 3106 3104 3101
3074 3077 3081 3083 3086 3090 3092 3096 3098 3101 3103 3103 3105 3106 3106 3107 3108 3109 3109 3108 3107 3108 3108 3107 3107 3106 3105 3105 3107 3107 3106 3105 3103 3101 3100 3098 3096 3094
3062 3065 3069 3073 3075 3079 3083 3085 3088 3090 3092 3094 3095 3095 3096 3097 3097 3098 3098 3098 3098 3098 3098 3097 3097 3097 3096 3097 3098 3098 3097 3097 3096 3093 3092 3089 3087 3085
3049 3054 3056 3061 3064 3068 3071 3074 3076 3079 3081 3083 3084 3085 3086 3086 3087 3087 3087 3087 3087 3087 3088 3089 3088 3087 3087 3089 3090 3089 3090 3088 3086 3085 3082 3080 3078 3077
3036 3040 3044 3048 3053 3057 3060 3062 3065 3067 3069 3071 3073 3074 3075 3075 3075 3076 3076 3077 3077 3077 3078 3078 3079 3080 3080 3081 3082 3082 3082 3079 3078 3075 3073 3071 3069 3067
3024 3029 3033 3036 3039 3044 3047 3050 3052 3054 3057 3058 3060 3061 3062 3063 3064 3065 3066 3066 3068 3069 3070 3071 3072 3073 3073 3074 3074 3075 3072 3070 3069 3066 3064 3062 3060 3059
3012 3016 3019 3021 3025 3030 3034 3036 3038 3042 3044 3046 3047 3048 3050 3051 3052 3054 3056 3057 3059 3060 3062 3063 3065 3065 3066 3066 3066 3065 3064 3061 3060 3057 3055 3054 3052 3049
2996 3001 3002 3006 3011 3017 3019 3021 3025 3028 3031 3033 3035 3037 3038 3040 3042 3045 3047 3048 3051 3053 3054 3055 3056 3057 3056 3056 3056 3056 3053 3054 3052 3048 3047 3045 3042 3040
2981 2981 2987 2993 2996 2998 3001 3007 3011 3014 3017 3021 3023 3026 3029 3031 3033 3036 3038 3041 3043 3044 3046 3047 3047 3048 3049 3047 3046 3044 3043 3042 3041 3040 3037 3035 3033 3030
2965 2967 2973 2977 2982 2986 2991 2996 2999 3003 3006 3009 3013 3016 3020 3023 3026 3029 3031 3034 3036 3037 3038 3037 3038 3038 3038 3039 3036 3034 3033 3032 3030 3029 3027 3025 3023 3020
2952 2957 2963 2968 2971 2976 2980 2983 2988 2993 2996 3000 3004 3008 3012 3015 3018 3021 3024 3026 3028 3029 3030 3028 3029 3029 3027 3026 3025 3024 3025 3021 3018 3018 3016 3013 3011 3010
2943 2948 2953 2957 2962 2967 2970 2973 2978 2983 2988 2992 2996 3001 3005 3008 3012 3014 3016 3018 3020 3021 3022 3021 3020 3018 3015 3015 3013 3017 3014 3011 3010 3008 3005 3001 2999 2997
2935 2941 2944 2947 2953 2960 2963 2967 2971 2976 2981 2986 2990 2994 2998 3001 3004 3006 3008 3010 3010 3011 3011 3011 3010 3008 3005 3003 3003 3005 3004 3000 2998 2996 2994 2991 2986 2985
2930 2934 2937 2941 2947 2952 2958 2961 2964 2969 2975 2980 2984 2987 2991 2994 2996 2998 2999 2999 3000 3000 3000 3001 3000 2997 2994 2993 2993 2992 2993 2992 2991 2987 2984 2979 2972 2969
2924 2928 2931 2935 2941 2947 2952 2955 2959 2964 2968 2973 2977 2980 2982 2985 2986 2988 2989 2990 2990 2989 2989 2989 2988 2987 2986 2985 2983 2982 2981 2979 2979 2976 2975 2969 2963 2959